This demonstration page uses our WeatherBlox Daily Observations layout. Learn more.

38.89511, -77.03637

Hourly Observations for December 11, 2016

Temp ( °F °C ) Dew Point ( °F °C ) Humidity (%) Winds ( mph kmh ) Pressure ( in mb ) Visibility ( mi km ) Precip ( " mm )
12:52 am 00:52 Cloudy 30 -1.1 14 -10 51 51 NNW 3 6 30.53 1034 10 16.0934 0 0
1:52 am 01:52 Cloudy 29 -1.7 14 -10 54 54 N 6 9 30.53 1034 10 16.0934 0 0
2:52 am 02:52 Cloudy 30 -1.1 14 -10 51 51 N 5 7 30.54 1034 10 16.0934 0 0
3:52 am 03:52 Cloudy 30 -1.1 14 -10 51 51 NNW 3 6 30.53 1034 10 16.0934 0 0
4:52 am 04:52 Cloudy 31 -0.6 15 -9.4 52 52 NNW 3 6 30.54 1034 10 16.0934 0 0
5:52 am 05:52 Cloudy 31 -0.6 15 -9.4 52 52 SW 3 6 30.57 1035 10 16.0934 0 0
6:52 am 06:52 Cloudy 31 -0.6 16 -8.9 54 54 N 5 7 30.55 1035 10 16.0934 0 0
7:52 am 07:52 Mostly Cloudy 31 -0.6 17 -8.3 56 56 Calm 30.57 1035 10 16.0934 0 0
8:52 am 08:52 Cloudy 32 0 16 -8.9 52 52 ENE 5 7 30.58 1036 10 16.0934 0 0
9:52 am 09:52 Cloudy 33 0.6 16 -8.9 49 49 ESE 7 11 30.56 1035 10 16.0934 0 0
10:52 am 10:52 Cloudy 35 1.7 19 -7.2 52 52 SSE 7 11 30.55 1035 10 16.0934 0 0
11:52 am 11:52 Cloudy 37 2.8 20 -6.7 50 50 S 10 17 30.5 1033 10 16.0934 0 0
12:52 pm 12:52 Cloudy 38 3.3 22 -5.6 52 52 S 12 19 30.46 1032 10 16.0934 0 0
1:52 pm 13:52 Cloudy 40 4.4 24 -4.4 53 53 S 15 24 30.43 1030 10 16.0934 0 0
2:52 pm 14:52 Cloudy 40 4.4 24 -4.4 53 53 S 13 20 30.41 1030 10 16.0934 0 0
3:52 pm 15:52 Cloudy 40 4.4 25 -3.9 55 55 S 12 19 30.38 1029 10 16.0934 0 0
4:52 pm 16:52 Cloudy 39 3.9 25 -3.9 57 57 SSE 8 13 30.37 1028 10 16.0934 0 0
5:52 pm 17:52 Cloudy 39 3.9 25 -3.9 57 57 SSE 8 13 30.35 1028 10 16.0934 0 0
6:52 pm 18:52 Cloudy 38 3.3 26 -3.3 62 62 SSE 8 13 30.31 1026 10 16.0934 0 0
7:52 pm 19:52 Cloudy 38 3.3 27 -2.8 65 65 SSE 5 7 30.3 1026 10 16.0934 0 0
8:52 pm 20:52 Cloudy 38 3.3 28 -2.2 68 68 SSE 6 9 30.27 1025 10 16.0934 0 0
9:52 pm 21:52 Cloudy 40 4.4 30 -1.1 68 68 SSE 9 15 30.21 1023 10 16.0934 0 0
10:52 pm 22:52 Cloudy 41 5 30 -1.1 65 65 S 9 15 30.16 1022 10 16.0934 0 0
11:52 pm 23:52 Cloudy 43 6.1 27 -2.8 53 53 S 9 15 30.11 1020 10 16.0934 0 0

Powered by AerisWeather